This is the latest recevied weather packets stored in our database for station/object LRTZ. If no packets are shown the sender has not sent any weather packets the latest 1 day(s).
| Time | Temp. | Humidity | Pressure | Rain* | Wind** | Luminosity | Snow |
|---|---|---|---|---|---|---|---|
| 1778103243 | 8.89° C | 100% | 1018 hPa | - | - | - | - |
| 1778099643 | 8.89° C | 100% | 1017 hPa | - | - | - | - |
| 1778096959 | 10° C | 100% | 1017 hPa | - | - | - | - |
| 1778093345 | 10° C | 88% | 1017 hPa | - | - | - | - |
| 1778092443 | 10° C | 88% | 1017 hPa | - | - | - | - |
| 1778086143 | 13.89° C | 77% | 1016 hPa | - | - | - | - |
| 1778074443 | 16.11° C | 68% | 1017 hPa | - | - | - | - |
| 1778063643 | 16.11° C | 68% | 1017 hPa | - | - | - | - |
| 1778061843 | 16.11° C | 68% | 1017 hPa | - | - | - | - |
| 1778060943 | 16.11° C | 72% | 1017 hPa | - | - | - | - |
| 1778059143 | 16.11° C | 72% | 1017 hPa | - | - | - | - |
| 1778057343 | 15° C | 72% | 1017 hPa | - | - | - | - |
| 1778055539 | 15° C | 72% | 1017 hPa | - | - | - | - |
| 1778054643 | 15° C | 72% | 1017 hPa | - | - | - | - |
| 1778052843 | 15° C | 63% | 1016 hPa | - | - | - | - |
| 1778050143 | 12.78° C | 77% | 1016 hPa | - | - | - | - |
| 1778049242 | 12.78° C | 77% | 1016 hPa | - | - | - | - |
| 1778046544 | 10° C | 82% | 1016 hPa | - | - | - | - |
| 1778045651 | 10° C | 82% | 1016 hPa | - | - | - | - |
| 1778043856 | 10° C | 82% | 1016 hPa | - | - | - | - |
| 1778042958 | 7.78° C | 71% | 1016 hPa | - | - | - | - |
| 1778042046 | 7.78° C | 71% | 1016 hPa | - | - | - | - |
| 1778040243 | 7.78° C | 71% | 1016 hPa | - | - | - | - |
| 1778039343 | 7.22° C | 76% | 1015 hPa | - | - | - | - |
| 1778038443 | 7.22° C | 76% | 1015 hPa | - | - | - | - |
* Rain since midnight (hover to see other rain measurements)
** Current wind speed in m/s (hover to see current wind gust speed)